{"data":{"norad_id":63036,"intl_designator":"2025-034H","name":"STARLINK-32818","alt_names":[],"object_type":"PAYLOAD","status":"ACTIVE","operator":null,"country":"US","launch_date":"2025-02-18","launch_site_code":"AFETR","launch_vehicle":null,"mission":null,"orbit_class":"UNKNOWN","rcs_meters":null,"size_class":null,"mass_kg":null,"dimensions":null,"purposes":["comms"],"wikipedia_slug":null,"has_3d_model":false,"image_url":null,"decayed_at":null,"tle_current":{"epoch":"2026-05-25T00:40:15.305952Z","epoch_age_seconds":66562,"freshness":"FRESH","line1":"1 63036U 25034H   26145.02795493  .00017529  00000+0  60239-3 0  9995","line2":"2 63036  53.1551 263.6079 0000959  85.8847 274.2263 15.30208072 70771","mean_motion":15.30208072,"eccentricity":9.59e-5,"inclination_deg":53.1551,"raan_deg":263.6079,"arg_perigee_deg":85.8847,"mean_anomaly_deg":274.2263,"bstar":0.00060239,"rev_number":7077,"period_min":94.104849291371,"perigee_km":474.53373383613,"apogee_km":475.84820214039,"semimajor_km":6853.3279679883,"source":"CELESTRAK","updated_at":"2026-05-25T13:38:19.866635Z"}}}